TimeEDT,TemperatureF,Dew PointF,Humidity,Sea Level PressureIn,VisibilityMPH,Wind Direction,Wind SpeedMPH,Gust SpeedMPH,PrecipitationIn,Events,Conditions,WindDirDegrees,DateUTC
12:14 AM,49.1,46.4,90,29.29,3.0,WNW,11.5,17.3,N/A,Rain,Rain,290,2012-10-15 04:14:00
12:34 AM,47.1,44.2,90,29.29,3.0,WNW,15.0,21.9,N/A,,Drizzle,300,2012-10-15 04:34:00
12:55 AM,45.1,42.3,90,29.30,2.5,WNW,11.5,23.0,N/A,Rain,Rain,300,2012-10-15 04:55:00
1:14 AM,44.6,41.9,90,29.31,2.5,WNW,15.0,19.6,N/A,,Drizzle,290,2012-10-15 05:14:00
1:35 AM,44.1,41.0,89,29.32,2.5,WNW,11.5,24.2,N/A,,Drizzle,290,2012-10-15 05:35:00
1:55 AM,43.5,40.5,89,29.33,3.0,WNW,16.1,21.9,N/A,Rain,Light Rain,290,2012-10-15 05:55:00
2:14 AM,43.2,40.1,89,29.34,3.0,WNW,15.0,21.9,N/A,,Drizzle,300,2012-10-15 06:14:00
2:35 AM,42.8,39.7,89,29.35,3.0,WNW,17.3,26.5,N/A,,Drizzle,300,2012-10-15 06:35:00
2:54 AM,42.8,39.6,88,29.35,3.0,WNW,15.0,24.2,N/A,Rain,Light Rain,300,2012-10-15 06:54:00
3:14 AM,42.8,39.4,88,29.36,3.0,WNW,16.1,25.3,N/A,Rain,Rain,300,2012-10-15 07:14:00
3:35 AM,42.4,39.2,88,29.37,3.0,WNW,18.4,27.6,N/A,,Drizzle,300,2012-10-15 07:35:00
3:54 AM,42.1,38.7,88,29.39,2.5,WNW,12.7,26.5,N/A,,Drizzle,300,2012-10-15 07:54:00
4:14 AM,41.9,38.5,88,29.40,3.0,WNW,16.1,26.5,N/A,,Drizzle,300,2012-10-15 08:14:00
4:35 AM,41.4,37.9,88,29.41,2.5,NW,18.4,26.5,N/A,Rain,Light Rain,310,2012-10-15 08:35:00
4:54 AM,41.0,37.4,87,29.43,3.0,WNW,18.4,26.5,N/A,Rain,Light Rain,300,2012-10-15 08:54:00
5:15 AM,40.5,36.9,87,29.44,4.0,WNW,17.3,24.2,N/A,Rain,Rain,300,2012-10-15 09:15:00
5:54 AM,40.1,36.1,86,29.47,5.0,NW,15.0,25.3,N/A,Rain,Light Rain,310,2012-10-15 09:54:00
6:15 AM,39.7,36.0,86,29.47,5.0,WNW,18.4,29.9,N/A,Rain,Light Rain,300,2012-10-15 10:15:00
6:34 AM,39.7,35.8,86,29.48,7.0,NW,21.9,31.1,N/A,Rain,Light Rain,310,2012-10-15 10:34:00
6:54 AM,40.1,35.8,85,29.49,7.0,NW,18.4,31.1,N/A,Rain,Light Rain,310,2012-10-15 10:54:00
7:15 AM,40.5,36.5,86,29.51,5.0,NW,16.1,27.6,N/A,Rain,Light Rain,310,2012-10-15 11:15:00
7:34 AM,40.6,36.5,85,29.52,5.0,NW,16.1,29.9,N/A,Rain,Light Rain,310,2012-10-15 11:34:00
7:54 AM,40.5,36.5,86,29.54,5.0,NW,12.7,26.5,N/A,Rain,Rain,310,2012-10-15 11:54:00
8:15 AM,40.3,36.3,86,29.56,7.0,NW,12.7,26.5,N/A,Rain,Rain,310,2012-10-15 12:15:00
8:34 AM,39.7,35.8,86,29.57,4.0,WNW,19.6,29.9,N/A,Rain,Rain,300,2012-10-15 12:34:00
8:55 AM,39.6,35.8,86,29.60,3.0,NW,17.3,27.6,N/A,Rain,Rain,310,2012-10-15 12:55:00
9:15 AM,39.9,36.0,86,29.60,2.5,NW,17.3,33.4,N/A,Rain,Rain,310,2012-10-15 13:15:00
9:34 AM,40.1,36.0,85,29.62,3.0,NW,24.2,33.4,N/A,Rain,Rain,310,2012-10-15 13:34:00
9:55 AM,40.1,36.0,85,29.63,3.0,NW,17.3,28.8,N/A,Rain,Rain,310,2012-10-15 13:55:00
10:14 AM,40.5,36.5,86,29.64,3.0,NW,15.0,33.4,N/A,Rain,Rain,320,2012-10-15 14:14:00
10:34 AM,41.0,36.9,85,29.65,4.0,NW,16.1,24.2,N/A,Rain,Rain,310,2012-10-15 14:34:00
10:55 AM,41.5,37.4,85,29.65,4.0,NW,20.7,31.1,N/A,Rain,Rain,310,2012-10-15 14:55:00
11:14 AM,41.9,37.6,85,29.66,5.0,NW,19.6,28.8,N/A,Rain,Rain,320,2012-10-15 15:14:00
11:34 AM,42.3,38.3,86,29.67,4.0,NW,13.8,21.9,N/A,Rain,Rain,310,2012-10-15 15:34:00
11:55 AM,42.4,38.3,85,29.68,5.0,NW,12.7,25.3,N/A,Rain,Rain,310,2012-10-15 15:55:00
12:14 PM,42.4,38.3,85,29.69,5.0,NW,16.1,25.3,N/A,Rain,Light Rain,310,2012-10-15 16:14:00
12:35 PM,43.0,39.0,86,29.70,5.0,NW,16.1,26.5,N/A,Rain,Light Rain,320,2012-10-15 16:35:00
12:55 PM,43.3,39.2,85,29.71,5.0,NW,13.8,19.6,N/A,Rain,Rain,310,2012-10-15 16:55:00
1:14 PM,43.7,39.2,84,29.72,7.0,NW,9.2,24.2,N/A,Rain,Light Rain,310,2012-10-15 17:14:00
1:35 PM,43.7,39.7,86,29.72,7.0,WNW,12.7,20.7,N/A,Rain,Light Rain,300,2012-10-15 17:35:00
1:54 PM,43.7,39.2,84,29.73,10.0,WNW,13.8,20.7,N/A,Rain,Rain,300,2012-10-15 17:54:00
2:14 PM,43.7,39.2,84,29.74,10.0,WNW,6.9,17.3,N/A,,Overcast,300,2012-10-15 18:14:00
2:35 PM,43.9,39.2,84,29.74,10.0,WNW,12.7,18.4,N/A,,Overcast,290,2012-10-15 18:35:00
2:54 PM,43.9,39.2,84,29.75,10.0,WNW,8.1,-,N/A,,Overcast,290,2012-10-15 18:54:00
3:14 PM,44.6,38.8,80,29.75,10.0,WNW,10.4,18.4,N/A,,Overcast,300,2012-10-15 19:14:00
3:35 PM,44.6,37.8,77,29.76,10.0,NW,15.0,21.9,N/A,,Overcast,310,2012-10-15 19:35:00
3:54 PM,44.6,37.6,76,29.78,10.0,WNW,16.1,25.3,N/A,,Overcast,300,2012-10-15 19:54:00
4:15 PM,44.2,36.5,74,29.79,10.0,WNW,10.4,21.9,N/A,,Overcast,300,2012-10-15 20:15:00
4:35 PM,44.2,35.8,72,29.79,10.0,NW,15.0,23.0,N/A,,Overcast,310,2012-10-15 20:35:00
4:54 PM,44.1,35.2,71,29.80,10.0,WNW,8.1,19.6,N/A,,Overcast,290,2012-10-15 20:54:00
5:15 PM,43.9,34.7,70,29.80,10.0,WNW,12.7,20.7,N/A,,Overcast,300,2012-10-15 21:15:00
5:34 PM,43.9,34.7,70,29.81,10.0,NW,11.5,17.3,N/A,,Overcast,310,2012-10-15 21:34:00
5:54 PM,43.9,33.6,67,29.82,10.0,NW,13.8,20.7,N/A,,Overcast,320,2012-10-15 21:54:00
6:14 PM,43.7,33.1,66,29.83,10.0,NW,11.5,18.4,N/A,,Overcast,310,2012-10-15 22:14:00
6:34 PM,43.7,33.3,67,29.84,10.0,WNW,11.5,16.1,N/A,,Overcast,300,2012-10-15 22:34:00
6:55 PM,43.7,33.1,66,29.84,10.0,WNW,11.5,20.7,N/A,,Overcast,300,2012-10-15 22:55:00
7:14 PM,43.7,32.9,66,29.85,10.0,NW,10.4,17.3,N/A,,Overcast,310,2012-10-15 23:14:00
7:34 PM,43.7,32.9,66,29.86,10.0,WNW,8.1,19.6,N/A,,Overcast,300,2012-10-15 23:34:00
7:54 PM,43.7,33.1,66,29.87,10.0,NW,12.7,23.0,N/A,,Overcast,310,2012-10-15 23:54:00
8:14 PM,43.7,32.0,63,29.87,10.0,NW,11.5,19.6,N/A,,Overcast,310,2012-10-16 00:14:00
8:35 PM,43.7,32.2,64,29.87,10.0,NW,10.4,-,N/A,,Overcast,310,2012-10-16 00:35:00
8:54 PM,43.7,32.4,64,29.87,10.0,NW,15.0,19.6,N/A,,Overcast,310,2012-10-16 00:54:00
9:15 PM,43.5,32.0,64,29.88,10.0,NW,11.5,18.4,N/A,,Mostly Cloudy,310,2012-10-16 01:15:00
9:35 PM,43.7,32.5,65,29.89,10.0,NW,10.4,18.4,N/A,,Mostly Cloudy,320,2012-10-16 01:35:00
9:54 PM,43.3,32.2,65,29.89,10.0,NNW,10.4,16.1,N/A,,Overcast,330,2012-10-16 01:54:00
10:15 PM,43.2,32.0,65,29.89,10.0,NW,6.9,16.1,N/A,,Mostly Cloudy,310,2012-10-16 02:15:00
10:34 PM,43.2,32.0,65,29.90,10.0,NW,11.5,17.3,N/A,,Mostly Cloudy,320,2012-10-16 02:34:00
10:54 PM,41.9,32.9,70,29.90,10.0,West,5.8,-,N/A,,Overcast,270,2012-10-16 02:54:00
11:15 PM,41.4,32.2,70,29.91,10.0,West,5.8,-,N/A,,Overcast,270,2012-10-16 03:15:00
11:34 PM,41.0,32.0,70,29.91,10.0,West,6.9,-,N/A,,Overcast,280,2012-10-16 03:34:00
11:54 PM,41.0,32.2,71,29.91,10.0,West,5.8,-,N/A,,Overcast,280,2012-10-16 03:54:00